Terminal Aerodrome Forecast
Issued by NWS

Home | Current Version | Previous Version | Text Only | Print | Product List | Glossary On
Versions: 1 2 3 4 5 6 7 8 9 10 11 12 13 14 15 16 17 18 19 20
000
FTUS45 KREV 250500
TAFRNO
TAF
KRNO 250524Z 2506/2606 26012G20KT P6SM SCT080 BKN120
     FM251200 28017G26KT P6SM VCSH SCT040 BKN080
     FM260100 31012G20KT P6SM SCT060 BKN110=

USA.gov is the U.S. government's official web portal to all federal, state and local government web resources and services.